Find Starlink 32330

NORAD ID: 61850 Int'l Des: 2024-202 Owner: SPXS Country: US Constellation: starlink operational
LEOCIRCULAR

实时位置

正在加载3D地球...

关于 Starlink 32330

正在加载描述...

即将过境

Passes for default location (London). Set your location on the main map for personalized predictions.

高度历史

Loading altitude history...

两行轨道根数

1 61850U 24202F 26126.43789874 -.00001187 00000-0 -33622-4 0 9996
2 61850 43.0004 271.4992 0001068 270.4168 89.6562 15.27567515 84170
Epoch: May 6, 2026 • Age: 13 hours

当前状态

高度 482.3 km
速度 7.63 km/s
星下点 13.39°N, 71.17°E
发射日期 Nov 7, 2024
运行时间 1.4 years
类型 internet

技术详情

分类 Payload
质量 730.00 kg
干质量 700.00 kg
总质量 730.00 kg
长度 0.30 m
直径 4.10 m
跨度 29.00 m
形状 Box + pan
制造商 SPXS
平台类型 Starlink V2M
阶段状态 In Orbit
所有者/国家 SPXS/US

Most Searched